Altus AFB, OK

8:16 PM CST on December 03, 2016 (GMT -0600)
Altus Air Force Base

Weather History for KLTS - March, 2013

Change the Weather History Date:

Friday, March 1, 2013

  Actual Average Record
Temperature  
Mean Temperature 40 °F -  
Max Temperature 52 °F 57 °F 91 °F (2006)
Min Temperature 29 °F 31 °F 19 °F (2002)
Degree Days  
Heating Degree Days 24    
Moisture  
Dew Point 29 °F    
Average Humidity 69    
Maximum Humidity 90    
Minimum Humidity 46    
Precipitation  
Precipitation 0.00 in - - ()
Sea Level Pressure  
Sea Level Pressure 30.28 in    
Wind  
Wind Speed 8 mph (NNW)    
Max Wind Speed 24 mph    
Max Gust Speed 32 mph    
Visibility 10 miles    
Events      
Averages and records for this station are not official NWS values.
T = Trace of Precipitation, MM = Missing Value Source: NWS Daily Summary

Daily Weather History Graph

Daily Weather History Graph

Search for Another Location

Airport or City:

Trip Planner

Search our weather history database for the weather conditions in past years. The results will help you decide how hot, cold, wet, or windy it might be!

Date:

Astronomy

Mar. 01, 2013 Rise Set
Actual Time 7:05 AM CST 6:33 PM CST
Civil Twilight 6:40 AM CST 6:58 PM CST
Nautical Twilight 6:11 AM CST 7:27 PM CST
Astronomical Twilight 5:42 AM CST 7:57 PM CST
Moon 10:54 PM CST (3/1) 9:05 AM CST (3/1)
Length of Visible Light 12h 17m
Length of Day
11h 27m
Waning Gibbous, 83% of the Moon is Illuminated
Mar 1
Waning Gibbous
Mar 4
Last Quarter
Mar 11
New
Mar 19
First Quarter
Mar 27
Full

Hourly Weather History & Observations

Time (CST) Temp. Windchill Dew Point Humidity Pressure Visibility Wind Dir Wind Speed Gust Speed Precip Events Conditions
12:55 AM 30.0 °F 25.2 °F 25.9 °F 85% 30.25 in 10.0 mi WNW 4.6 mph - N/A   Clear
1:55 AM 33.4 °F 29.1 °F 25.5 °F 73% 30.25 in 10.0 mi WNW 4.6 mph - N/A   Clear
2:55 AM 29.1 °F 23.0 °F 26.4 °F 90% 30.24 in 10.0 mi NW 5.8 mph - N/A   Mostly Cloudy
3:55 AM 32.0 °F 28.7 °F 27.0 °F 82% 30.23 in 10.0 mi West 3.5 mph - N/A   Clear
4:55 AM 30.7 °F 27.3 °F 27.7 °F 88% 30.22 in 10.0 mi NW 3.5 mph - N/A   Scattered Clouds
5:55 AM 31.1 °F 24.5 °F 28.4 °F 90% 30.24 in 10.0 mi NE 6.9 mph - N/A   Scattered Clouds
6:55 AM 32.2 °F 26.7 °F 28.8 °F 87% 30.27 in 10.0 mi Variable 5.8 mph - N/A   Mostly Cloudy
7:55 AM 33.8 °F - 30.0 °F 86% 30.29 in 10.0 mi Calm Calm - N/A   Overcast
8:55 AM 36.5 °F 32.7 °F 30.4 °F 78% 30.30 in 10.0 mi SSW 4.6 mph - N/A   Partly Cloudy
9:55 AM 39.7 °F 36.5 °F 30.9 °F 71% 30.30 in 10.0 mi NNW 4.6 mph - N/A   Clear
10:55 AM 42.8 °F 38.0 °F 31.3 °F 64% 30.30 in 10.0 mi NW 8.1 mph - N/A   Clear
11:55 AM 47.5 °F - 31.5 °F 54% 30.28 in 10.0 mi NNE 6.9 mph - N/A   Clear
12:55 PM 51.1 °F - 32.9 °F 50% 30.26 in 10.0 mi North 13.8 mph - N/A   Clear
1:20 PM 51.8 °F - 32.0 °F 47% 30.25 in 10.0 mi North 18.4 mph 25.3 mph N/A   Mostly Cloudy
1:25 PM 51.8 °F - 32.0 °F 47% 30.25 in 10.0 mi North 17.3 mph 24.2 mph N/A   Scattered Clouds
1:55 PM 52.0 °F - 33.4 °F 49% 30.25 in 10.0 mi North 17.3 mph 25.3 mph N/A   Clear
2:55 PM 51.6 °F - 32.7 °F 49% 30.26 in 10.0 mi North 24.2 mph 32.2 mph N/A   Partly Cloudy
3:55 PM 50.7 °F - 30.4 °F 46% 30.27 in 10.0 mi North 19.6 mph 26.5 mph N/A   Partly Cloudy
4:55 PM 48.7 °F - 29.8 °F 48% 30.28 in 10.0 mi North 19.6 mph 25.3 mph N/A   Partly Cloudy
5:55 PM 46.8 °F - 26.8 °F 46% 30.28 in 10.0 mi North 15.0 mph - N/A   Clear
6:55 PM 40.6 °F 35.4 °F 28.9 °F 63% 30.30 in 10.0 mi NNE 8.1 mph - N/A   Clear
7:55 PM 37.9 °F 31.5 °F 28.4 °F 69% 30.32 in 10.0 mi North 9.2 mph - N/A   Clear
8:55 PM 33.8 °F 26.4 °F 28.6 °F 81% 30.34 in 10.0 mi North 9.2 mph - N/A   Clear
9:55 PM 34.0 °F 28.0 °F 28.8 °F 81% 30.36 in 10.0 mi NNW 6.9 mph - N/A   Clear
10:55 PM 34.2 °F 30.0 °F 29.5 °F 83% 30.38 in 10.0 mi NW 4.6 mph - N/A   Clear
11:55 PM 33.3 °F 27.1 °F 28.8 °F 84% 30.39 in 10.0 mi NW 6.9 mph - N/A   Clear